User: anonymous   Login
Location: *
(33.8649°S, 62.1526°E)
Time: 22:11:15
(UTC+00:00)
Language:

ATLAS 3B R/B - Orbit

View from above orbital plane
View from above orbital plane
View from above satellite
View from above satellite

Ground track
Ground track

The orbit data is extracted from the following two-line orbital elements,

1 28538U 05004B   21108.84066737 0.00000020  00000-0  33403-4 0    00
2 28538  63.8280   3.6665 0122816  17.0366 342.9634 13.43143161    02
Epoch (UTC): 18 April 2021 20:10:33
Eccentricity: 0.0122816
inclination: 63.8280°
perigee height: 1006 km
apogee height: 1189 km
right ascension of ascending node: 3.6665°
argument of perigee: 17.0366°
revolutions per day: 13.43143161
mean anomaly at epoch: 342.9634°
orbit number at epoch: 0

The dashed part of the orbit path shows where the satellite is in the earth's shadow,  

DLR